This demonstration page uses our WeatherBlox Daily Observations layout. Learn more.

Left ArrowRight Arrow

Hourly Observations for August 17, 2017

Temp ( °F °C ) Dew Point ( °F °C ) Humidity (%) Winds ( mph kmh ) Pressure ( in mb ) Visibility ( mi km ) Precip ( " mm )
12:51 am 00:51 Clear 70 21.1 47 8.3 44 44 Calm 29.85 1011 10 16.0934 0 0
1:51 am 01:51 Clear 68 20 47 8.3 47 47 Calm 29.85 1011 10 16.0934 0 0
2:51 am 02:51 Clear 65 18.3 48 8.9 54 54 SSE 3 6 29.86 1011 10 16.0934 0 0
3:51 am 03:51 Clear 67 19.4 46 7.8 47 47 NE 5 7 29.88 1012 10 16.0934 0 0
4:51 am 04:51 Clear 63 17.2 49 9.4 60 60 Calm 29.9 1012 10 16.0934 0 0
5:51 am 05:51 Sunny 63 17.2 48 8.9 58 58 SW 3 6 29.91 1013 10 16.0934 0 0
6:51 am 06:51 Sunny 68 20 51 10.6 55 55 Calm 29.93 1014 10 16.0934 0 0
7:51 am 07:51 Sunny 75 23.9 48 8.9 39 39 Calm 29.94 1014 10 16.0934 0 0
8:51 am 08:51 Sunny 80 26.7 49 9.4 34 34 Calm 29.93 1014 10 16.0934 0 0
9:51 am 09:51 Sunny 84 28.9 49 9.4 30 30 W 6 9 29.94 1014 10 16.0934 0 0
10:51 am 10:51 Sunny 88 31.1 47 8.3 24 24 WSW 8 13 29.93 1014 10 16.0934 0 0
11:51 am 11:51 Sunny 92 33.3 46 7.8 21 21 NW 6 9 29.92 1013 10 16.0934 0 0
12:51 pm 12:51 Sunny 93 33.9 46 7.8 20 20 NW 3 6 29.91 1013 10 16.0934 0 0
1:51 pm 13:51 Sunny 95 35 45 7.2 18 18 S 7 11 29.88 1012 10 16.0934 0 0
2:51 pm 14:51 Sunny 95 35 44 6.7 17 17 WNW 8 13 29.85 1011 10 16.0934 0 0
3:51 pm 15:51 Sunny 95 35 40 4.4 15 15 S 7 11 29.82 1010 10 16.0934 0 0
4:51 pm 16:51 Sunny 95 35 41 5 15 15 WSW 9 15 29.81 1010 10 16.0934 0 0
5:51 pm 17:51 Sunny 94 34.4 40 4.4 15 15 W 8 13 29.81 1010 10 16.0934 0 0
6:51 pm 18:51 Sunny 90 32.2 43 6.1 19 19 W 7 11 29.82 1010 10 16.0934 0 0
7:51 pm 19:51 Clear 85 29.4 42 5.6 22 22 NW 9 15 29.83 1010 10 16.0934 0 0
8:51 pm 20:51 Clear 84 28.9 42 5.6 23 23 NW 10 17 29.85 1011 10 16.0934 0 0
9:51 pm 21:51 Clear 81 27.2 39 3.9 22 22 NW 10 17 29.85 1011 10 16.0934 0 0
10:51 pm 22:51 Clear 77 25 39 3.9 26 26 WNW 8 13 29.86 1011 10 16.0934 0 0
11:51 pm 23:51 Clear 71 21.7 42 5.6 35 35 SE 5 7 29.86 1011 10 16.0934 0 0.0254

Powered by AerisWeather